Погода в Мшено

Чехия     50°26′22″N   14°37′57″E
темп.,
°C
ветер,
м/с
пор.,
м/с
влажн.,
%
обл.,
%
осадки,
мм/ч
давл.,
гПа
погр.,
м
9 марта, вт
вт901:00−2юв116229 0.0 102321
04:00−2вюв116480 0.0 102221
07:00−2вюв236390 0.0 1022141
10:00+1юв3448100 0.0 1021616
13:00+3ююв3442100 0.0 10201073
16:00+3юв2243100 0.0 1019986
19:00−1вюв225594 0.0 102022
22:00−1юв225592 0.0 102049
10 марта, ср
ср1001:00−1вюв225994 0.0 102080
04:00−1вюв1264100 0.0 101967
07:00−1вюв1266100 0.0 1020108
10:00+2вюв237099 0.0 1020437
13:00+4ю226996 0.1 1020741
16:00+3зсз0167100 0.0 1020696
19:000ю018367 0.0 102121
22:00−1ю128611 0.0 102121
11 марта, чт
чт1101:00−1юв228936 0.0 102046
04:00−1юв2594100 0.0 1017158
07:000юв3689100 0.0 1015254
10:00+3ю51089100 0.3 1013551
13:00+5ю51078100 1.1 1010670
16:00+7ююз51381100 0.0 1007788
19:00+6ююз51387100 0.3 1007399
22:00+6юз399499 0.1 1007276
12 марта, пт
пт1201:00+5зюз3129596 1.4 1008550
04:00+4зюз6148320 0.0 1010831
07:00+2зюз4148311 0.1 10121037
10:00+6з6106226 0.0 10141472
13:00+8зюз685242 0.0 10131527
16:00+8зюз69496 0.0 10121863
19:00+4юз23703 0.0 101148
22:00+4ююз4117785 0.0 1011352
13 марта, сб
сб1301:00+4юз5137793 0.0 1009623
04:00+4зюз6118377 0.1 1009923
07:00+4зюз5108288 0.2 1010732
10:00+6зюз7117085 0.1 10111236
13:00+5юз6108390 0.3 1010958
16:00+7юз71369100 0.1 10081475
19:00+7юз61376100 0.1 10061209
22:00+6ююз51478100 0.0 10061129